Green Bay, WI

5:05 PM CST on February 24, 2017 (GMT -0600)
Austin Straubel International

Weather History for KGRB - October, 2011

Change the Weather History Date:

Monday, October 24, 2011

  Actual Average Record
Temperature  
Mean Temperature 51 °F 44 °F  
Max Temperature 60 °F 53 °F 76 °F (1963)
Min Temperature 41 °F 35 °F 19 °F (1981)
Degree Days  
Heating Degree Days 14 21  
Month to date heating degree days 257 402  
Since 1 July heating degree days 506 672  
Cooling Degree Days 0 0  
Month to date cooling degree days 6 0  
Year to date cooling degree days 591 395  
Moisture  
Dew Point 38 °F    
Average Humidity 65    
Maximum Humidity 92    
Minimum Humidity 37    
Precipitation  
Precipitation 0.00 in 0.07 in 1.29 in (1967)
Month to date precipitation 1.29 1.91  
Year to date precipitation 32.66 25.35  
Snow  
Snow 0.00 in 0.00 in 3.50 in (1933)
Month to date snowfall 0.0 0.1  
Since 1 July snowfall 0.0 0.1  
Since 1 September snowfall 0.0 0.1  
Snow Depth 0.00 in    
Sea Level Pressure  
Sea Level Pressure 29.98 in    
Wind  
Wind Speed 9 mph (West)    
Max Wind Speed 22 mph    
Max Gust Speed 28 mph    
Visibility 10 miles    
Events      
T = Trace of Precipitation, MM = Missing Value Source: NWS Daily Summary

Daily Weather History Graph

Daily Weather History Graph

Search for Another Location

Airport or City:

Trip Planner

Search our weather history database for the weather conditions in past years. The results will help you decide how hot, cold, wet, or windy it might be!

Date:

Astronomy

Oct. 24, 2011 Rise Set
Actual Time 7:18 AM CDT 5:53 PM CDT
Civil Twilight 6:49 AM CDT 6:23 PM CDT
Nautical Twilight 6:15 AM CDT 6:57 PM CDT
Astronomical Twilight 5:41 AM CDT 7:31 PM CDT
Moon 4:32 AM CDT 4:21 PM CDT
Length of Visible Light 11h 34m
Length of Day
10h 34m
Waning Crescent, 7% of the Moon is Illuminated
Oct 24
Waning Crescent
Oct 26
New
Nov 2
First Quarter
Nov 10
Full
Nov 18
Last Quarter

Hourly Weather History & Observations

Time (CDT) Temp. Windchill Dew Point Humidity Pressure Visibility Wind Dir Wind Speed Gust Speed Precip Events Conditions
12:53 AM 45.0 °F 41.2 °F 42.1 °F 90% 29.86 in 10.0 mi West 6.9 mph - N/A   Clear
1:53 AM 43.0 °F 38.8 °F 39.9 °F 89% 29.86 in 10.0 mi West 6.9 mph - N/A   Clear
2:53 AM 41.0 °F 35.8 °F 37.9 °F 89% 29.87 in 10.0 mi West 8.1 mph - N/A   Clear
3:53 AM 41.0 °F 36.4 °F 37.9 °F 89% 29.88 in 10.0 mi West 6.9 mph - N/A   Clear
4:53 AM 41.0 °F 36.4 °F 37.9 °F 89% 29.89 in 10.0 mi West 6.9 mph - N/A   Clear
5:53 AM 41.0 °F 34.7 °F 37.9 °F 89% 29.91 in 10.0 mi WSW 10.4 mph - N/A   Clear
6:53 AM 41.0 °F 33.5 °F 37.0 °F 86% 29.92 in 10.0 mi West 13.8 mph - N/A   Clear
7:53 AM 41.0 °F 34.3 °F 37.0 °F 86% 29.95 in 10.0 mi West 11.5 mph - N/A   Clear
8:53 AM 44.1 °F 38.6 °F 39.0 °F 82% 29.97 in 10.0 mi West 10.4 mph - N/A   Clear
9:53 AM 46.9 °F - 39.9 °F 77% 29.99 in 10.0 mi WNW 9.2 mph - N/A   Clear
10:53 AM 51.1 °F - 39.9 °F 66% 30.01 in 10.0 mi West 13.8 mph - N/A   Clear
11:53 AM 53.1 °F - 39.0 °F 59% 30.01 in 10.0 mi West 13.8 mph 24.2 mph N/A   Clear
12:53 PM 55.9 °F - 39.9 °F 55% 29.99 in 10.0 mi West 15.0 mph 18.4 mph N/A   Clear
1:53 PM 57.9 °F - 37.0 °F 46% 29.99 in 10.0 mi West 19.6 mph 25.3 mph N/A   Clear
2:53 PM 59.0 °F - 34.0 °F 39% 29.99 in 10.0 mi WNW 19.6 mph 25.3 mph N/A   Clear
3:53 PM 59.0 °F - 34.0 °F 39% 30.00 in 10.0 mi West 15.0 mph - N/A   Clear
4:53 PM 57.9 °F - 35.1 °F 42% 30.02 in 10.0 mi West 10.4 mph - N/A   Clear
5:53 PM 53.1 °F - 35.1 °F 50% 30.03 in 10.0 mi West 6.9 mph - N/A   Clear
6:53 PM 51.1 °F - 35.1 °F 54% 30.05 in 10.0 mi West 5.8 mph - N/A   Clear
7:53 PM 46.0 °F 44.8 °F 35.1 °F 66% 30.06 in 10.0 mi WSW 3.5 mph - N/A   Clear
8:53 PM 45.0 °F - 35.1 °F 68% 30.06 in 10.0 mi Calm Calm - N/A   Scattered Clouds
9:53 PM 46.0 °F - 37.0 °F 71% 30.07 in 10.0 mi Calm Calm - N/A   Overcast
10:53 PM 44.6 °F 43.1 °F 39.2 °F 81% 30.06 in 10.0 mi South 3.5 mph - N/A   Mostly Cloudy
11:53 PM 46.0 °F - 39.9 °F 79% 30.09 in 10.0 mi Calm Calm - N/A   Overcast